TimeAST,TemperatureF,Dew PointF,Humidity,Sea Level PressureIn,VisibilityMPH,Wind Direction,Wind SpeedMPH,Gust SpeedMPH,PrecipitationIn,Events,Conditions,WindDirDegrees,DateUTC
12:00 AM,77.0,69.8,78,29.89,6.2,East,11.5,-,N/A,,Partly Cloudy,80,2013-03-02 04:00:00
1:00 AM,77.0,71.6,83,29.89,6.2,East,11.5,-,N/A,,Scattered Clouds,90,2013-03-02 05:00:00
2:00 AM,76,71,80,29.88,12,East,11.5,,,,Widespread Dust,90,2013-03-02 06:00:00
2:00 AM,77.0,71.6,83,29.86,6.2,East,11.5,-,N/A,,Mostly Cloudy,90,2013-03-02 06:00:00
3:00 AM,77.0,69.8,78,29.86,6.2,East,11.5,-,N/A,,Mostly Cloudy,90,2013-03-02 07:00:00
4:00 AM,78.8,71.6,78,29.86,6.2,East,13.8,-,N/A,,Mostly Cloudy,100,2013-03-02 08:00:00
5:00 AM,77,72,79,29.88,12,East,11.5,,,,Widespread Dust,100,2013-03-02 09:00:00
5:00 AM,77.0,71.6,83,29.89,6.2,East,11.5,-,N/A,,Mostly Cloudy,100,2013-03-02 09:00:00
6:00 AM,78.8,71.6,78,29.89,6.2,ESE,11.5,-,N/A,,Mostly Cloudy,110,2013-03-02 10:00:00
7:30 AM,78.8,71.6,78,29.92,6.2,ESE,13.8,-,N/A,,Mostly Cloudy,110,2013-03-02 11:30:00
8:00 AM,80,73,73,29.93,14,ESE,16.1,,,,Widespread Dust,120,2013-03-02 12:00:00
8:00 AM,80.6,73.4,79,29.92,6.2,ESE,16.1,-,N/A,,Mostly Cloudy,120,2013-03-02 12:00:00
9:00 AM,82.4,73.4,74,29.95,6.2,ESE,16.1,-,N/A,,Mostly Cloudy,120,2013-03-02 13:00:00
10:00 AM,82.4,73.4,74,29.95,6.2,SE,18.4,-,N/A,,Mostly Cloudy,130,2013-03-02 14:00:00
10:30 AM,82.4,73.4,74,29.95,6.2,SE,18.4,-,N/A,,Mostly Cloudy,130,2013-03-02 14:30:00
11:00 AM,83,74,66,29.96,14,SE,18.4,,,,Widespread Dust,130,2013-03-02 15:00:00
11:00 AM,84.2,73.4,70,29.95,6.2,SE,18.4,-,N/A,,Mostly Cloudy,130,2013-03-02 15:00:00
12:00 PM,84.2,75.2,74,29.95,6.2,SE,20.7,-,N/A,,Mostly Cloudy,140,2013-03-02 16:00:00
1:00 PM,84.2,73.4,70,29.92,6.2,SE,20.7,-,N/A,,Scattered Clouds,140,2013-03-02 17:00:00
2:00 PM,83,74,67,29.91,16,SE,18.4,,,,Partly Cloudy,140,2013-03-02 18:00:00
2:00 PM,84.2,73.4,70,29.89,6.2,SE,18.4,-,N/A,,Scattered Clouds,140,2013-03-02 18:00:00
4:00 PM,82.4,73.4,74,29.86,6.2,SE,17.3,-,N/A,,Partly Cloudy,130,2013-03-02 20:00:00
5:00 PM,82,73,67,29.89,16,ESE,15.0,,,,Scattered Clouds,120,2013-03-02 21:00:00
5:00 PM,82.4,73.4,74,29.89,6.2,ESE,15.0,-,N/A,,Partly Cloudy,120,2013-03-02 21:00:00
6:00 PM,80.6,73.4,79,29.89,6.2,ESE,15.0,-,N/A,,Partly Cloudy,120,2013-03-02 22:00:00
7:00 PM,78.8,73.4,83,29.89,6.2,ESE,12.7,-,N/A,,Partly Cloudy,110,2013-03-02 23:00:00
8:00 PM,79,72,75,29.93,17,ESE,18.4,,,,Scattered Clouds,110,2013-03-03 00:00:00
8:00 PM,78.8,73.4,83,29.92,6.2,ESE,18.4,-,N/A,,Partly Cloudy,110,2013-03-03 00:00:00
9:00 PM,78.8,73.4,83,29.92,6.2,ESE,17.3,-,N/A,,Scattered Clouds,110,2013-03-03 01:00:00
10:00 PM,78.8,73.4,83,29.95,6.2,ESE,15.0,-,N/A,,Partly Cloudy,110,2013-03-03 02:00:00
11:00 PM,79,73,76,29.95,16,ESE,16.1,,,,Scattered Clouds,110,2013-03-03 03:00:00
11:00 PM,78.8,73.4,83,29.95,6.2,ESE,16.1,-,N/A,,Partly Cloudy,110,2013-03-03 03:00:00